Regional Weather Roundup
Issued by NWS

Home | Current Version | Previous Version | Graphics & Text | Print | Product List | Glossary On
Versions: 1 2 3 4 5 6 7 8 9 10 11 12 13 14 15 16 17 18 19 20 21 22 23 24 25 26 27 28 29 30 31 32 33 34 35 36 37 38 39 40 41 42 43 44 45 46 47 48 49 50
000
ASUS43 KMKX 292210
RWRWI

WISCONSIN REGIONAL WEATHER ROUNDUP
NATIONAL WEATHER SERVICE MILWAUKEE/SULLIVAN WI
400 PM CST THU JAN 29 2015

NOTE: "FAIR" INDICATES FEW OR NO CLOUDS BELOW 12,000 FEET WITH NO
SIGNIFICANT WEATHER AND/OR OBSTRUCTIONS TO VISIBILITY.

WIZ001-002-006>008-014>016-023>028-292300-
NORTHWEST WISCONSIN

CITY           SKY/WX    TMP DP  RH WIND       PRES   REMARKS
SUPERIOR ARPT  CLOUDY    19   9  64 NW18      30.33R WCI   4
ASHLAND        CLOUDY    24  13  62 NW16G23   30.24R WCI  11
HAYWARD        CLOUDY    21  10  62 N12G24    30.23R WCI   9
SIREN          CLOUDY    22  12  63 NW15G28   30.30R WCI   9
CUMBERLAND     CLOUDY    25  14  63 NW21      30.23R WCI  10
RICE LAKE      CLOUDY    26  16  64 NW14G21   30.25R WCI  15
CHETEK         CLOUDY    26  17  68 W9G17     30.22R WCI  17
LADYSMITH      CLOUDY    27  18  68 NW13G23   30.19R WCI  16
EAU CLAIRE     CLOUDY    28  15  58 NW18G28   30.21R WCI  15
MENOMONIE      CLOUDY    29  18  65 W15G22    30.24R WCI  17
NEW RICHMOND   PTSUNNY   26  16  66 NW21G28   30.29R WCI  11
OSCEOLA        CLOUDY    26  15  63 NW16G23   30.33R WCI  14
$$

WIZ003>005-009-010-017-018-292300-
NORTH CENTRAL WISCONSIN

CITY           SKY/WX    TMP DP  RH WIND       PRES   REMARKS
MANITOWISH WTR LGT SNOW  19  13  76 N15G29    30.12R WCI   5
ARBOR VITAE    LGT SNOW  22  16  78 N21G29    30.11R WCI   6
WOODRUFF       LGT SNOW  22  16  78 N21G29    30.11R WCI   6
RHINELANDER    FLURRIES  23  15  71 NW16G23   30.08R WCI  10
EAGLE RIVER    LGT SNOW  20  13  75 N22G31    30.08R VSB 3/4 WCI   4
LAND O LAKES   LGT SNOW  19  15  82 N16G23    30.09R WCI   5
PHILLIPS       CLOUDY    24  15  66 NW12      30.12R WCI  13
TOMAHAWK       CLOUDY    26  15  65 NW17G26   30.10R WCI  12
MEDFORD        CLOUDY    26  19  73 NW22G28   30.10R WCI  12
MERRILL        CLOUDY    28  17  64 N20G28    30.09R WCI  14
$$

WIZ029-030-035-036-043>047-292300-
CENTRAL WISCONSIN

CITY           SKY/WX    TMP DP  RH WIND       PRES   REMARKS
WAUSAU         CLOUDY    29  17  61 NW22G31   30.07R WCI  15
MOSINEE        CLOUDY    30  19  64 NW24G31   30.08R WCI  16
MARSHFIELD     CLOUDY    30  20  66 NW28G35   30.11R WCI  15
STEVENS POINT  CLOUDY    31  18  57 NW12G24   30.08R WCI  22
WAUPACA        CLOUDY    36  18  49 NW15      30.06R WCI  26
WAUTOMA        CLOUDY    35  20  55 NW13G22   30.08R WCI  26
WISC RAPIDS    MOCLDY    32  17  54 N15G38    30.11R WCI  22
CAMP DOUGLAS   CLOUDY    34  23  64 NW21G26   30.13R WCI  22
$$

WIZ011>013-019>022-031-037>040-048>050-292300-
NORTHEAST WISCONSIN

CITY           SKY/WX    TMP DP  RH WIND       PRES   REMARKS
ANTIGO         CLOUDY    25  17  74 N17G28    30.05R WCI  11
SHAWANO        CLOUDY    33  18  53 NW14G23   30.06R WCI  23
OCONTO         CLOUDY    31  19  61 MISG      30.03R
STURGEON BAY   CLOUDY    30  19  64 NW22      30.02R WCI  17
GREEN BAY      CLOUDY    33  20  58 NW13      30.03R WCI  24
MANITOWOC      CLOUDY    35  25  66 NW16      30.01R WCI  25
APPLETON       MOCLDY    32  18  55 NW21G35   30.04R WCI  20
CLINTONVILLE   CLOUDY    32  18  55 NW21G26   30.06R WCI  20
OSHKOSH        CLOUDY    34  22  61 NW22      30.04R WCI  22
$$

WIZ032>034-041-042-053>061-292300-
SOUTHWEST WISCONSIN

CITY           SKY/WX    TMP DP  RH WIND       PRES   REMARKS
LA CROSSE      CLOUDY    34  22  61 NW18G28   30.20R WCI  23
SPARTA         CLOUDY    33  21  63 NW15G28   30.18R WCI  22
VIROQUA        CLOUDY    32  22  68 NW20      30.15R WCI  20
BOSCOBEL       CLOUDY    36  24  62 NW10G22   30.17R WCI  28
PRAIRIE DU CHI CLOUDY    35  21  57 NW12G25   30.19R WCI  27
PLATTEVILLE    CLOUDY    34  27  74 W17G25    30.14R WCI  24
$$

WIZ056-057-062-063-064-067-068-292300-
SOUTH CENTRAL WISCONSIN

CITY           SKY/WX    TMP DP  RH WIND       PRES   REMARKS
REEDSBURG      CLOUDY    33  23  65 NW13G22   30.12R WCI  24
BARABOO/DELLS  CLOUDY    33  21  59 NW12G23   30.10R WCI  25
LONE ROCK      CLOUDY    35  23  61 NW15G24   30.14R WCI  25
MINERAL POINT  CLOUDY    34  27  75 NW16G24   30.12R WCI  23
MADISON        CLOUDY    34  23  64 NW14G23   30.09R WCI  25
MIDDLETON      CLOUDY    35  24  64 NW21      30.10R WCI  24
WATERTOWN      CLOUDY    33  24  68 NW13G22   30.07R WCI  24
MONROE         CLOUDY    34  27  75 NW17G25   30.10R WCI  23
JANESVILLE     CLOUDY    36  25  64 NW18G26   30.08R WCI  25
$$

WIZ051-052-058>065-066-070>072-292300-
SOUTHEAST WISCONSIN

CITY           SKY/WX    TMP DP  RH WIND       PRES   REMARKS
MILWAUKEE      CLOUDY    35  22  58 NW16G24   30.04R WCI  25
WAUKESHA       CLOUDY    32  25  74 NW15G21   30.04R WCI  22
MILWAUKEE/TIMM CLOUDY    34  23  64 NW15G23   30.03R WCI  24
RACINE         CLOUDY    35  24  64 NW16      30.05R WCI  25
BURLINGTON     CLOUDY    32  24  70 NW17G25   30.06R WCI  21
KENOSHA        CLOUDY    35  25  66 NW14G29   30.04R WCI  26
FOND DU LAC    CLOUDY    34  22  61 NW16G25   30.04R WCI  24
SHEBOYGAN      CLOUDY    34  23  64 NW17G24   30.01R WCI  23
WEST BEND      CLOUDY    32  23  69 NW16G23   30.03R WCI  21
JUNEAU         CLOUDY    33  22  65 NW14G23   30.07R WCI  23
$$

LSZ147-162-292300-
LAKE SUPERIOR

STATION/POSITION TIME  TEMP    WIND        PRES    WAVE
                       AIR SEA DIR/SP/G            HT/PER
                 (UTC) (F)     (DEG/KT/KT) (MB)    (FT/S)
DEVILS ISLAND    2200   22     320/ 25/ 30 1025.7R
PORT WING        2200   22     300/ 21     1025.7R
SAXON HARBOR     2124   25     330/ 20/ 25 1022.7R
$$

LMZ867-665-643>646-292300-
LAKE MICHIGAN

STATION/POSITION TIME  TEMP    WIND        PRES    WAVE
                       AIR SEA DIR/SP/G            HT/PER
                 (UTC) (F)     (DEG/KT/KT) (MB)    (FT/S)
NORTHPORT PIER   2103   27     360/ 25     1014.2R
SISTER BAY       2113   31     340/ 19/ 22   N/A
KEWAUNEE LAKESHO 2100   34     320/  5/ 11 1013.5R
SHEBOYGAN LAKESH 2200   35     310/ 13/ 17 1017.4R
PORT WASHINGTON  2140   35     320/  8/ 19 1017.3R
MILWAUKEE LAKESH 2100   35     330/ 13/ 20   N/A
KENOSHA   LAKESH 2200   35     320/ 10/ 16 1017.6R
$$

TC  - TEMPERATURE IN CELSIUS
VSB - VISIBILITY IN STATUTE MILES
WCI - WIND CHILL INDEX
HX  - HEAT INDEX



USA.gov is the U.S. government's official web portal to all federal, state and local government web resources and services.